User: anonymous   Login
Location: Nairn
(57.5833°N, 3.8667°W)
Time: 11:51:13
(UTC+00:00)
Language:

Cosmos 1707 - Orbit

View from above orbital plane
View from above orbital plane
View from above satellite
View from above satellite

Ground track
Ground track

The orbit data is extracted from the following two-line orbital elements,

1 16326U 85113A   20304.87319350 +.00000501 +00000-0 +25556-4 0  9994
2 16326 082.5104 077.2355 0010638 013.2138 346.9370 15.14377198903410
Epoch (UTC): 30 October 2020 20:57:23
Eccentricity: 0.0010638
inclination: 82.5104°
perigee height: 515 km
apogee height: 530 km
right ascension of ascending node: 77.2355°
argument of perigee: 13.2138°
revolutions per day: 15.14377198
mean anomaly at epoch: 346.9370°
orbit number at epoch: 90341

The dashed part of the orbit path shows where the satellite is in the earth's shadow,  

DLR